owner,sensor,date,latitude,longitude,air_temperature,qcFlag 
COMPS,ioos:station:USF.COMPS:SHP:1,2016-02-01T00:00:00Z,30.0600,-84.2910,13.79,1111122 
COMPS,ioos:station:USF.COMPS:SHP:1,2016-02-01T00:06:00Z,30.0600,-84.2910,13.69,1111122 
COMPS,ioos:station:USF.COMPS:SHP:1,2016-02-01T00:12:00Z,30.0600,-84.2910,13.59,1111122 
COMPS,ioos:station:USF.COMPS:SHP:1,2016-02-01T00:18:00Z,30.0600,-84.2910,13.49,1111122 
COMPS,ioos:station:USF.COMPS:SHP:1,2016-02-01T00:24:00Z,30.0600,-84.2910,13.53,1111122 
COMPS,ioos:station:USF.COMPS:SHP:1,2016-02-01T00:30:00Z,30.0600,-84.2910,13.36,1111122 
COMPS,ioos:station:USF.COMPS:SHP:1,2016-02-01T00:36:00Z,30.0600,-84.2910,13.4,1111122 
COMPS,ioos:station:USF.COMPS:SHP:1,2016-02-01T00:42:00Z,30.0600,-84.2910,13.49,1111122 
COMPS,ioos:station:USF.COMPS:SHP:1,2016-02-01T00:48:00Z,30.0600,-84.2910,13.38,1111122 
COMPS,ioos:station:USF.COMPS:SHP:1,2016-02-01T00:54:00Z,30.0600,-84.2910,13.23,1111122 
COMPS,ioos:station:USF.COMPS:SHP:1,2016-02-01T04:00:00Z,30.0600,-84.2910,14.11,1111122 
COMPS,ioos:station:USF.COMPS:SHP:1,2016-02-01T04:06:00Z,30.0600,-84.2910,14.11,1111122 
COMPS,ioos:station:USF.COMPS:SHP:1,2016-02-01T04:12:00Z,30.0600,-84.2910,14.12,1111122 
COMPS,ioos:station:USF.COMPS:SHP:1,2016-02-01T04:18:00Z,30.0600,-84.2910,14.13,1111122 
COMPS,ioos:station:USF.COMPS:SHP:1,2016-02-01T04:24:00Z,30.0600,-84.2910,14.23,1111122 
COMPS,ioos:station:USF.COMPS:SHP:1,2016-02-01T04:30:00Z,30.0600,-84.2910,14.11,1111122 
COMPS,ioos:station:USF.COMPS:SHP:1,2016-02-01T04:36:00Z,30.0600,-84.2910,14.11,1111122 
COMPS,ioos:station:USF.COMPS:SHP:1,2016-02-01T04:42:00Z,30.0600,-84.2910,14.11,1111122 
COMPS,ioos:station:USF.COMPS:SHP:1,2016-02-01T04:48:00Z,30.0600,-84.2910,14.23,1111122 
COMPS,ioos:station:USF.COMPS:SHP:1,2016-02-01T04:54:00Z,30.0600,-84.2910,14.12,1111122 
COMPS,ioos:station:USF.COMPS:SHP:1,2016-02-01T05:00:00Z,30.0600,-84.2910,14.11,1111122 
COMPS,ioos:station:USF.COMPS:SHP:1,2016-02-01T05:06:00Z,30.0600,-84.2910,14.11,1111122 
COMPS,ioos:station:USF.COMPS:SHP:1,2016-02-01T05:12:00Z,30.0600,-84.2910,14.22,1111122 
COMPS,ioos:station:USF.COMPS:SHP:1,2016-02-01T05:18:00Z,30.0600,-84.2910,14.14,1111122 
COMPS,ioos:station:USF.COMPS:SHP:1,2016-02-01T05:24:00Z,30.0600,-84.2910,14.11,1111122 
COMPS,ioos:station:USF.COMPS:SHP:1,2016-02-01T05:30:00Z,30.0600,-84.2910,14.11,1111122 
COMPS,ioos:station:USF.COMPS:SHP:1,2016-02-01T05:36:00Z,30.0600,-84.2910,14.2,1111122 
COMPS,ioos:station:USF.COMPS:SHP:1,2016-02-01T05:42:00Z,30.0600,-84.2910,14.22,1111122 
COMPS,ioos:station:USF.COMPS:SHP:1,2016-02-01T05:48:00Z,30.0600,-84.2910,14.11,1111122 
COMPS,ioos:station:USF.COMPS:SHP:1,2016-02-01T05:54:00Z,30.0600,-84.2910,14.11,1111122 
COMPS,ioos:station:USF.COMPS:SHP:1,2016-02-01T06:00:00Z,30.0600,-84.2910,14.18,1111122 
COMPS,ioos:station:USF.COMPS:SHP:1,2016-02-01T06:06:00Z,30.0600,-84.2910,14.18,1111122 
COMPS,ioos:station:USF.COMPS:SHP:1,2016-02-01T06:12:00Z,30.0600,-84.2910,14.11,1111122 
COMPS,ioos:station:USF.COMPS:SHP:1,2016-02-01T06:18:00Z,30.0600,-84.2910,14.19,1111122 
COMPS,ioos:station:USF.COMPS:SHP:1,2016-02-01T06:24:00Z,30.0600,-84.2910,14.25,1111122 
COMPS,ioos:station:USF.COMPS:SHP:1,2016-02-01T06:30:00Z,30.0600,-84.2910,14.15,1111122 
COMPS,ioos:station:USF.COMPS:SHP:1,2016-02-01T06:36:00Z,30.0600,-84.2910,13.96,1111122 
COMPS,ioos:station:USF.COMPS:SHP:1,2016-02-01T06:42:00Z,30.0600,-84.2910,13.91,1111122 
COMPS,ioos:station:USF.COMPS:SHP:1,2016-02-01T06:48:00Z,30.0600,-84.2910,13.83,1111122 
COMPS,ioos:station:USF.COMPS:SHP:1,2016-02-01T06:54:00Z,30.0600,-84.2910,13.83,1111122 
COMPS,ioos:station:USF.COMPS:SHP:1,2016-02-01T07:00:00Z,30.0600,-84.2910,13.71,1111122 
COMPS,ioos:station:USF.COMPS:SHP:1,2016-02-01T07:06:00Z,30.0600,-84.2910,13.77,1111122 
COMPS,ioos:station:USF.COMPS:SHP:1,2016-02-01T07:12:00Z,30.0600,-84.2910,13.84,1111122 
COMPS,ioos:station:USF.COMPS:SHP:1,2016-02-01T07:18:00Z,30.0600,-84.2910,13.97,1111122 
COMPS,ioos:station:USF.COMPS:SHP:1,2016-02-01T07:24:00Z,30.0600,-84.2910,13.84,1111122 
COMPS,ioos:station:USF.COMPS:SHP:1,2016-02-01T07:30:00Z,30.0600,-84.2910,13.75,1111122 
COMPS,ioos:station:USF.COMPS:SHP:1,2016-02-01T07:36:00Z,30.0600,-84.2910,13.7,1111122 
COMPS,ioos:station:USF.COMPS:SHP:1,2016-02-01T07:42:00Z,30.0600,-84.2910,13.9,1111122 
COMPS,ioos:station:USF.COMPS:SHP:1,2016-02-01T07:48:00Z,30.0600,-84.2910,13.85,1111122 
COMPS,ioos:station:USF.COMPS:SHP:1,2016-02-01T07:54:00Z,30.0600,-84.2910,13.84,1111122 
COMPS,ioos:station:USF.COMPS:SHP:1,2016-02-01T08:00:00Z,30.0600,-84.2910,13.86,1111122 
COMPS,ioos:station:USF.COMPS:SHP:1,2016-02-01T08:06:00Z,30.0600,-84.2910,14.06,1111122 
COMPS,ioos:station:USF.COMPS:SHP:1,2016-02-01T08:12:00Z,30.0600,-84.2910,14.0,1111122 
COMPS,ioos:station:USF.COMPS:SHP:1,2016-02-01T08:18:00Z,30.0600,-84.2910,13.89,1111122 
COMPS,ioos:station:USF.COMPS:SHP:1,2016-02-01T08:24:00Z,30.0600,-84.2910,13.84,1111122 
COMPS,ioos:station:USF.COMPS:SHP:1,2016-02-01T08:30:00Z,30.0600,-84.2910,13.79,1111122 
COMPS,ioos:station:USF.COMPS:SHP:1,2016-02-01T08:36:00Z,30.0600,-84.2910,13.77,1111122 
COMPS,ioos:station:USF.COMPS:SHP:1,2016-02-01T08:42:00Z,30.0600,-84.2910,13.67,1111122 
COMPS,ioos:station:USF.COMPS:SHP:1,2016-02-01T08:48:00Z,30.0600,-84.2910,13.73,1111122 
COMPS,ioos:station:USF.COMPS:SHP:1,2016-02-01T08:54:00Z,30.0600,-84.2910,13.77,1111122 
COMPS,ioos:station:USF.COMPS:SHP:1,2016-02-01T09:00:00Z,30.0600,-84.2910,13.78,1111122 
COMPS,ioos:station:USF.COMPS:SHP:1,2016-02-01T09:06:00Z,30.0600,-84.2910,13.41,1111122 
COMPS,ioos:station:USF.COMPS:SHP:1,2016-02-01T09:12:00Z,30.0600,-84.2910,13.16,1111122 
COMPS,ioos:station:USF.COMPS:SHP:1,2016-02-01T09:18:00Z,30.0600,-84.2910,12.98,1111122 
COMPS,ioos:station:USF.COMPS:SHP:1,2016-02-01T09:24:00Z,30.0600,-84.2910,12.97,1111122 
COMPS,ioos:station:USF.COMPS:SHP:1,2016-02-01T09:30:00Z,30.0600,-84.2910,12.76,1111122 
COMPS,ioos:station:USF.COMPS:SHP:1,2016-02-01T09:36:00Z,30.0600,-84.2910,12.7,1111122 
COMPS,ioos:station:USF.COMPS:SHP:1,2016-02-01T09:42:00Z,30.0600,-84.2910,12.68,1111122 
COMPS,ioos:station:USF.COMPS:SHP:1,2016-02-01T09:48:00Z,30.0600,-84.2910,12.65,1111122 
COMPS,ioos:station:USF.COMPS:SHP:1,2016-02-01T09:54:00Z,30.0600,-84.2910,12.55,1111122 
COMPS,ioos:station:USF.COMPS:SHP:1,2016-02-01T10:00:00Z,30.0600,-84.2910,12.57,1111122 
COMPS,ioos:station:USF.COMPS:SHP:1,2016-02-01T10:06:00Z,30.0600,-84.2910,12.49,1111122 
COMPS,ioos:station:USF.COMPS:SHP:1,2016-02-01T10:12:00Z,30.0600,-84.2910,12.49,1111122 
COMPS,ioos:station:USF.COMPS:SHP:1,2016-02-01T10:18:00Z,30.0600,-84.2910,12.38,1111122 
COMPS,ioos:station:USF.COMPS:SHP:1,2016-02-01T10:24:00Z,30.0600,-84.2910,12.22,1111122 
COMPS,ioos:station:USF.COMPS:SHP:1,2016-02-01T10:30:00Z,30.0600,-84.2910,12.16,1111122 
COMPS,ioos:station:USF.COMPS:SHP:1,2016-02-01T10:36:00Z,30.0600,-84.2910,12.31,1111122 
COMPS,ioos:station:USF.COMPS:SHP:1,2016-02-01T10:42:00Z,30.0600,-84.2910,12.21,1111122 
COMPS,ioos:station:USF.COMPS:SHP:1,2016-02-01T10:48:00Z,30.0600,-84.2910,11.96,1111122 
COMPS,ioos:station:USF.COMPS:SHP:1,2016-02-01T10:54:00Z,30.0600,-84.2910,11.95,1111122 
COMPS,ioos:station:USF.COMPS:SHP:1,2016-02-01T11:00:00Z,30.0600,-84.2910,12.1,1111122 
COMPS,ioos:station:USF.COMPS:SHP:1,2016-02-01T11:06:00Z,30.0600,-84.2910,12.25,1111122 
COMPS,ioos:station:USF.COMPS:SHP:1,2016-02-01T11:12:00Z,30.0600,-84.2910,12.07,1111122 
COMPS,ioos:station:USF.COMPS:SHP:1,2016-02-01T11:18:00Z,30.0600,-84.2910,11.91,1111122 
COMPS,ioos:station:USF.COMPS:SHP:1,2016-02-01T11:24:00Z,30.0600,-84.2910,11.87,1111122 
COMPS,ioos:station:USF.COMPS:SHP:1,2016-02-01T11:30:00Z,30.0600,-84.2910,12.01,1111122 
COMPS,ioos:station:USF.COMPS:SHP:1,2016-02-01T11:36:00Z,30.0600,-84.2910,11.93,1111122 
COMPS,ioos:station:USF.COMPS:SHP:1,2016-02-01T11:42:00Z,30.0600,-84.2910,12.03,1111122 
COMPS,ioos:station:USF.COMPS:SHP:1,2016-02-01T11:48:00Z,30.0600,-84.2910,11.95,1111122 
COMPS,ioos:station:USF.COMPS:SHP:1,2016-02-01T11:54:00Z,30.0600,-84.2910,11.93,1111122 
COMPS,ioos:station:USF.COMPS:SHP:1,2016-02-01T12:00:00Z,30.0600,-84.2910,11.82,1111122 
COMPS,ioos:station:USF.COMPS:SHP:1,2016-02-01T12:06:00Z,30.0600,-84.2910,11.82,1111122 
COMPS,ioos:station:USF.COMPS:SHP:1,2016-02-01T12:12:00Z,30.0600,-84.2910,11.83,1111122 
COMPS,ioos:station:USF.COMPS:SHP:1,2016-02-01T12:18:00Z,30.0600,-84.2910,11.94,1111122 
COMPS,ioos:station:USF.COMPS:SHP:1,2016-02-01T12:24:00Z,30.0600,-84.2910,11.8,1111122 
COMPS,ioos:station:USF.COMPS:SHP:1,2016-02-01T12:30:00Z,30.0600,-84.2910,11.82,1111122 
COMPS,ioos:station:USF.COMPS:SHP:1,2016-02-01T12:36:00Z,30.0600,-84.2910,11.82,1111122 
COMPS,ioos:station:USF.COMPS:SHP:1,2016-02-01T12:42:00Z,30.0600,-84.2910,12.0,1111122 
COMPS,ioos:station:USF.COMPS:SHP:1,2016-02-01T12:48:00Z,30.0600,-84.2910,11.85,1111122 
COMPS,ioos:station:USF.COMPS:SHP:1,2016-02-01T12:54:00Z,30.0600,-84.2910,11.96,1111122 
COMPS,ioos:station:USF.COMPS:SHP:1,2016-02-01T13:00:00Z,30.0600,-84.2910,12.11,1111122 
COMPS,ioos:station:USF.COMPS:SHP:1,2016-02-01T13:06:00Z,30.0600,-84.2910,12.53,1111122 
COMPS,ioos:station:USF.COMPS:SHP:1,2016-02-01T13:12:00Z,30.0600,-84.2910,12.88,1111122 
COMPS,ioos:station:USF.COMPS:SHP:1,2016-02-01T13:18:00Z,30.0600,-84.2910,13.19,1111122 
COMPS,ioos:station:USF.COMPS:SHP:1,2016-02-01T13:24:00Z,30.0600,-84.2910,13.58,1111122 
COMPS,ioos:station:USF.COMPS:SHP:1,2016-02-01T13:30:00Z,30.0600,-84.2910,14.0,1111122 
COMPS,ioos:station:USF.COMPS:SHP:1,2016-02-01T13:36:00Z,30.0600,-84.2910,14.18,1111122 
COMPS,ioos:station:USF.COMPS:SHP:1,2016-02-01T13:42:00Z,30.0600,-84.2910,14.18,1111122 
COMPS,ioos:station:USF.COMPS:SHP:1,2016-02-01T13:48:00Z,30.0600,-84.2910,14.13,1111122 
COMPS,ioos:station:USF.COMPS:SHP:1,2016-02-01T13:54:00Z,30.0600,-84.2910,14.33,1111122 
COMPS,ioos:station:USF.COMPS:SHP:1,2016-02-01T14:00:00Z,30.0600,-84.2910,14.56,1111122 
COMPS,ioos:station:USF.COMPS:SHP:1,2016-02-01T14:06:00Z,30.0600,-84.2910,14.53,1111122 
COMPS,ioos:station:USF.COMPS:SHP:1,2016-02-01T14:12:00Z,30.0600,-84.2910,14.75,1111122 
COMPS,ioos:station:USF.COMPS:SHP:1,2016-02-01T14:18:00Z,30.0600,-84.2910,14.82,1111122 
COMPS,ioos:station:USF.COMPS:SHP:1,2016-02-01T14:24:00Z,30.0600,-84.2910,14.96,1111122 
COMPS,ioos:station:USF.COMPS:SHP:1,2016-02-01T14:30:00Z,30.0600,-84.2910,15.01,1111122 
COMPS,ioos:station:USF.COMPS:SHP:1,2016-02-01T14:36:00Z,30.0600,-84.2910,14.84,1111122 
COMPS,ioos:station:USF.COMPS:SHP:1,2016-02-01T14:42:00Z,30.0600,-84.2910,14.92,1111122 
COMPS,ioos:station:USF.COMPS:SHP:1,2016-02-01T14:48:00Z,30.0600,-84.2910,15.04,1111122 
COMPS,ioos:station:USF.COMPS:SHP:1,2016-02-01T14:54:00Z,30.0600,-84.2910,14.93,1111122 
COMPS,ioos:station:USF.COMPS:SHP:1,2016-02-01T15:00:00Z,30.0600,-84.2910,14.98,1111122 
COMPS,ioos:station:USF.COMPS:SHP:1,2016-02-01T15:06:00Z,30.0600,-84.2910,15.12,1111122 
COMPS,ioos:station:USF.COMPS:SHP:1,2016-02-01T15:12:00Z,30.0600,-84.2910,15.29,1111122 
COMPS,ioos:station:USF.COMPS:SHP:1,2016-02-01T15:18:00Z,30.0600,-84.2910,15.31,1111122 
COMPS,ioos:station:USF.COMPS:SHP:1,2016-02-01T15:24:00Z,30.0600,-84.2910,15.3,1111122 
COMPS,ioos:station:USF.COMPS:SHP:1,2016-02-01T15:30:00Z,30.0600,-84.2910,15.33,1111122 
COMPS,ioos:station:USF.COMPS:SHP:1,2016-02-01T15:36:00Z,30.0600,-84.2910,15.33,1111122 
COMPS,ioos:station:USF.COMPS:SHP:1,2016-02-01T15:42:00Z,30.0600,-84.2910,15.45,1111122 
COMPS,ioos:station:USF.COMPS:SHP:1,2016-02-01T15:48:00Z,30.0600,-84.2910,15.47,1111122 
COMPS,ioos:station:USF.COMPS:SHP:1,2016-02-01T15:54:00Z,30.0600,-84.2910,15.64,1111122 
COMPS,ioos:station:USF.COMPS:SHP:1,2016-02-01T16:00:00Z,30.0600,-84.2910,15.95,1111122 
COMPS,ioos:station:USF.COMPS:SHP:1,2016-02-01T16:06:00Z,30.0600,-84.2910,16.2,1111122 
COMPS,ioos:station:USF.COMPS:SHP:1,2016-02-01T16:12:00Z,30.0600,-84.2910,16.16,1111122 
COMPS,ioos:station:USF.COMPS:SHP:1,2016-02-01T16:18:00Z,30.0600,-84.2910,16.07,1111122 
COMPS,ioos:station:USF.COMPS:SHP:1,2016-02-01T16:24:00Z,30.0600,-84.2910,16.04,1111122 
COMPS,ioos:station:USF.COMPS:SHP:1,2016-02-01T16:30:00Z,30.0600,-84.2910,16.6,1111122 
COMPS,ioos:station:USF.COMPS:SHP:1,2016-02-01T16:36:00Z,30.0600,-84.2910,16.79,1111122 
COMPS,ioos:station:USF.COMPS:SHP:1,2016-02-01T16:42:00Z,30.0600,-84.2910,16.6,1111122 
COMPS,ioos:station:USF.COMPS:SHP:1,2016-02-01T16:48:00Z,30.0600,-84.2910,17.01,1111122 
COMPS,ioos:station:USF.COMPS:SHP:1,2016-02-01T16:54:00Z,30.0600,-84.2910,17.02,1111122 
COMPS,ioos:station:USF.COMPS:SHP:1,2016-02-01T17:00:00Z,30.0600,-84.2910,16.85,1111122 
COMPS,ioos:station:USF.COMPS:SHP:1,2016-02-01T17:06:00Z,30.0600,-84.2910,16.42,1111122 
COMPS,ioos:station:USF.COMPS:SHP:1,2016-02-01T17:12:00Z,30.0600,-84.2910,16.53,1111122 
COMPS,ioos:station:USF.COMPS:SHP:1,2016-02-01T17:18:00Z,30.0600,-84.2910,16.65,1111122 
COMPS,ioos:station:USF.COMPS:SHP:1,2016-02-01T17:24:00Z,30.0600,-84.2910,16.45,1111122 
COMPS,ioos:station:USF.COMPS:SHP:1,2016-02-01T17:30:00Z,30.0600,-84.2910,16.53,1111122 
COMPS,ioos:station:USF.COMPS:SHP:1,2016-02-01T17:36:00Z,30.0600,-84.2910,16.62,1111122 
COMPS,ioos:station:USF.COMPS:SHP:1,2016-02-01T17:42:00Z,30.0600,-84.2910,16.81,1111122 
COMPS,ioos:station:USF.COMPS:SHP:1,2016-02-01T17:48:00Z,30.0600,-84.2910,16.6,1111122 
COMPS,ioos:station:USF.COMPS:SHP:1,2016-02-01T17:54:00Z,30.0600,-84.2910,16.77,1111122 
COMPS,ioos:station:USF.COMPS:SHP:1,2016-02-01T18:00:00Z,30.0600,-84.2910,16.88,1111122 
COMPS,ioos:station:USF.COMPS:SHP:1,2016-02-01T18:06:00Z,30.0600,-84.2910,17.08,1111122 
COMPS,ioos:station:USF.COMPS:SHP:1,2016-02-01T18:12:00Z,30.0600,-84.2910,17.77,1111122 
COMPS,ioos:station:USF.COMPS:SHP:1,2016-02-01T18:18:00Z,30.0600,-84.2910,18.33,1111122 
COMPS,ioos:station:USF.COMPS:SHP:1,2016-02-01T18:24:00Z,30.0600,-84.2910,18.51,1111122 
COMPS,ioos:station:USF.COMPS:SHP:1,2016-02-01T18:30:00Z,30.0600,-84.2910,18.83,1111122 
COMPS,ioos:station:USF.COMPS:SHP:1,2016-02-01T18:36:00Z,30.0600,-84.2910,18.82,1111122 
COMPS,ioos:station:USF.COMPS:SHP:1,2016-02-01T18:42:00Z,30.0600,-84.2910,18.57,1111122 
COMPS,ioos:station:USF.COMPS:SHP:1,2016-02-01T18:48:00Z,30.0600,-84.2910,18.55,1111122 
COMPS,ioos:station:USF.COMPS:SHP:1,2016-02-01T18:54:00Z,30.0600,-84.2910,18.75,1111122 
COMPS,ioos:station:USF.COMPS:SHP:1,2016-02-01T19:00:00Z,30.0600,-84.2910,18.94,1111122 
COMPS,ioos:station:USF.COMPS:SHP:1,2016-02-01T19:06:00Z,30.0600,-84.2910,18.92,1111122 
COMPS,ioos:station:USF.COMPS:SHP:1,2016-02-01T19:12:00Z,30.0600,-84.2910,18.96,1111122 
COMPS,ioos:station:USF.COMPS:SHP:1,2016-02-01T19:18:00Z,30.0600,-84.2910,19.1,1111122 
COMPS,ioos:station:USF.COMPS:SHP:1,2016-02-01T19:24:00Z,30.0600,-84.2910,19.35,1111122 
COMPS,ioos:station:USF.COMPS:SHP:1,2016-02-01T19:30:00Z,30.0600,-84.2910,19.25,1111122 
COMPS,ioos:station:USF.COMPS:SHP:1,2016-02-01T19:36:00Z,30.0600,-84.2910,19.19,1111122 
COMPS,ioos:station:USF.COMPS:SHP:1,2016-02-01T19:42:00Z,30.0600,-84.2910,19.21,1111122 
COMPS,ioos:station:USF.COMPS:SHP:1,2016-02-01T19:48:00Z,30.0600,-84.2910,19.41,1111122 
COMPS,ioos:station:USF.COMPS:SHP:1,2016-02-01T19:54:00Z,30.0600,-84.2910,19.35,1111122 
COMPS,ioos:station:USF.COMPS:SHP:1,2016-02-01T20:00:00Z,30.0600,-84.2910,19.31,1111122 
COMPS,ioos:station:USF.COMPS:SHP:1,2016-02-01T20:06:00Z,30.0600,-84.2910,19.27,1111122 
COMPS,ioos:station:USF.COMPS:SHP:1,2016-02-01T20:12:00Z,30.0600,-84.2910,19.13,1111122 
COMPS,ioos:station:USF.COMPS:SHP:1,2016-02-01T20:18:00Z,30.0600,-84.2910,18.87,1111122 
COMPS,ioos:station:USF.COMPS:SHP:1,2016-02-01T20:24:00Z,30.0600,-84.2910,18.7,1111122 
COMPS,ioos:station:USF.COMPS:SHP:1,2016-02-01T20:30:00Z,30.0600,-84.2910,18.6,1111122 
COMPS,ioos:station:USF.COMPS:SHP:1,2016-02-01T20:36:00Z,30.0600,-84.2910,18.68,1111122 
COMPS,ioos:station:USF.COMPS:SHP:1,2016-02-01T20:42:00Z,30.0600,-84.2910,18.69,1111122 
COMPS,ioos:station:USF.COMPS:SHP:1,2016-02-01T20:48:00Z,30.0600,-84.2910,18.79,1111122 
COMPS,ioos:station:USF.COMPS:SHP:1,2016-02-01T20:54:00Z,30.0600,-84.2910,18.88,1111122 
COMPS,ioos:station:USF.COMPS:SHP:1,2016-02-01T21:00:00Z,30.0600,-84.2910,19.08,1111122 
COMPS,ioos:station:USF.COMPS:SHP:1,2016-02-01T21:06:00Z,30.0600,-84.2910,19.17,1111122 
COMPS,ioos:station:USF.COMPS:SHP:1,2016-02-01T21:12:00Z,30.0600,-84.2910,19.07,1111122 
COMPS,ioos:station:USF.COMPS:SHP:1,2016-02-01T21:18:00Z,30.0600,-84.2910,18.97,1111122 
COMPS,ioos:station:USF.COMPS:SHP:1,2016-02-01T21:24:00Z,30.0600,-84.2910,18.89,1111122 
COMPS,ioos:station:USF.COMPS:SHP:1,2016-02-01T21:30:00Z,30.0600,-84.2910,18.81,1111122 
COMPS,ioos:station:USF.COMPS:SHP:1,2016-02-01T21:36:00Z,30.0600,-84.2910,18.64,1111122 
COMPS,ioos:station:USF.COMPS:SHP:1,2016-02-01T21:42:00Z,30.0600,-84.2910,18.67,1111122 
COMPS,ioos:station:USF.COMPS:SHP:1,2016-02-01T21:48:00Z,30.0600,-84.2910,18.69,1111122 
COMPS,ioos:station:USF.COMPS:SHP:1,2016-02-01T21:54:00Z,30.0600,-84.2910,18.43,1111122 
COMPS,ioos:station:USF.COMPS:SHP:1,2016-02-01T22:00:00Z,30.0600,-84.2910,18.28,1111122 
COMPS,ioos:station:USF.COMPS:SHP:1,2016-02-01T22:06:00Z,30.0600,-84.2910,18.15,1111122 
COMPS,ioos:station:USF.COMPS:SHP:1,2016-02-01T22:12:00Z,30.0600,-84.2910,18.09,1111122 
COMPS,ioos:station:USF.COMPS:SHP:1,2016-02-01T22:18:00Z,30.0600,-84.2910,18.07,1111122 
COMPS,ioos:station:USF.COMPS:SHP:1,2016-02-01T22:24:00Z,30.0600,-84.2910,17.95,1111122 
COMPS,ioos:station:USF.COMPS:SHP:1,2016-02-01T22:30:00Z,30.0600,-84.2910,17.91,1111122 
COMPS,ioos:station:USF.COMPS:SHP:1,2016-02-01T22:36:00Z,30.0600,-84.2910,17.81,1111122 
COMPS,ioos:station:USF.COMPS:SHP:1,2016-02-01T22:42:00Z,30.0600,-84.2910,17.88,1111122 
COMPS,ioos:station:USF.COMPS:SHP:1,2016-02-01T22:48:00Z,30.0600,-84.2910,17.71,1111122 
COMPS,ioos:station:USF.COMPS:SHP:1,2016-02-01T22:54:00Z,30.0600,-84.2910,17.72,1111122 
COMPS,ioos:station:USF.COMPS:SHP:1,2016-02-01T23:00:00Z,30.0600,-84.2910,17.66,1111122 
COMPS,ioos:station:USF.COMPS:SHP:1,2016-02-01T23:06:00Z,30.0600,-84.2910,17.58,1111122 
COMPS,ioos:station:USF.COMPS:SHP:1,2016-02-01T23:12:00Z,30.0600,-84.2910,17.23,1111122 
COMPS,ioos:station:USF.COMPS:SHP:1,2016-02-01T23:18:00Z,30.0600,-84.2910,17.05,1111122 
COMPS,ioos:station:USF.COMPS:SHP:1,2016-02-01T23:24:00Z,30.0600,-84.2910,16.93,1111122 
COMPS,ioos:station:USF.COMPS:SHP:1,2016-02-01T23:30:00Z,30.0600,-84.2910,16.94,1111122 
COMPS,ioos:station:USF.COMPS:SHP:1,2016-02-01T23:36:00Z,30.0600,-84.2910,16.82,1111122 
COMPS,ioos:station:USF.COMPS:SHP:1,2016-02-01T23:42:00Z,30.0600,-84.2910,16.8,1111122 
COMPS,ioos:station:USF.COMPS:SHP:1,2016-02-01T23:48:00Z,30.0600,-84.2910,16.78,1111122 
COMPS,ioos:station:USF.COMPS:SHP:1,2016-02-01T23:54:00Z,30.0600,-84.2910,16.76,1111122 
COMPS,ioos:station:USF.COMPS:SHP:1,2016-02-02T00:00:00Z,30.0600,-84.2910,16.71,1111122 
COMPS,ioos:station:USF.COMPS:SHP:1,2016-02-02T00:06:00Z,30.0600,-84.2910,16.55,1111122 
COMPS,ioos:station:USF.COMPS:SHP:1,2016-02-02T00:12:00Z,30.0600,-84.2910,16.51,1111122 
COMPS,ioos:station:USF.COMPS:SHP:1,2016-02-02T00:18:00Z,30.0600,-84.2910,16.46,1111122 
COMPS,ioos:station:USF.COMPS:SHP:1,2016-02-02T00:24:00Z,30.0600,-84.2910,16.53,1111122 
COMPS,ioos:station:USF.COMPS:SHP:1,2016-02-02T00:30:00Z,30.0600,-84.2910,16.39,1111122 
COMPS,ioos:station:USF.COMPS:SHP:1,2016-02-02T00:36:00Z,30.0600,-84.2910,16.39,1111122 
COMPS,ioos:station:USF.COMPS:SHP:1,2016-02-02T00:42:00Z,30.0600,-84.2910,16.32,1111122 
COMPS,ioos:station:USF.COMPS:SHP:1,2016-02-02T00:48:00Z,30.0600,-84.2910,16.46,1111122 
COMPS,ioos:station:USF.COMPS:SHP:1,2016-02-02T00:54:00Z,30.0600,-84.2910,16.37,1111122 
COMPS,ioos:station:USF.COMPS:SHP:1,2016-02-02T01:00:00Z,30.0600,-84.2910,16.26,1111122 
COMPS,ioos:station:USF.COMPS:SHP:1,2016-02-02T01:06:00Z,30.0600,-84.2910,16.26,1111122 
COMPS,ioos:station:USF.COMPS:SHP:1,2016-02-02T01:12:00Z,30.0600,-84.2910,16.39,1111122 
COMPS,ioos:station:USF.COMPS:SHP:1,2016-02-02T01:18:00Z,30.0600,-84.2910,16.16,1111122 
COMPS,ioos:station:USF.COMPS:SHP:1,2016-02-02T01:24:00Z,30.0600,-84.2910,16.09,1111122 
COMPS,ioos:station:USF.COMPS:SHP:1,2016-02-02T01:30:00Z,30.0600,-84.2910,15.98,1111122 
COMPS,ioos:station:USF.COMPS:SHP:1,2016-02-02T01:36:00Z,30.0600,-84.2910,16.04,1111122 
COMPS,ioos:station:USF.COMPS:SHP:1,2016-02-02T01:42:00Z,30.0600,-84.2910,15.91,1111122 
COMPS,ioos:station:USF.COMPS:SHP:1,2016-02-02T01:48:00Z,30.0600,-84.2910,15.85,1111122 
COMPS,ioos:station:USF.COMPS:SHP:1,2016-02-02T01:54:00Z,30.0600,-84.2910,15.79,1111122 
COMPS,ioos:station:USF.COMPS:SHP:1,2016-02-02T04:00:00Z,30.0600,-84.2910,15.48,1111122 
COMPS,ioos:station:USF.COMPS:SHP:1,2016-02-02T04:06:00Z,30.0600,-84.2910,15.45,1111122 
COMPS,ioos:station:USF.COMPS:SHP:1,2016-02-02T04:12:00Z,30.0600,-84.2910,15.29,1111122 
COMPS,ioos:station:USF.COMPS:SHP:1,2016-02-02T04:18:00Z,30.0600,-84.2910,15.26,1111122 
COMPS,ioos:station:USF.COMPS:SHP:1,2016-02-02T04:24:00Z,30.0600,-84.2910,15.2,1111122 
COMPS,ioos:station:USF.COMPS:SHP:1,2016-02-02T04:30:00Z,30.0600,-84.2910,15.36,1111122 
COMPS,ioos:station:USF.COMPS:SHP:1,2016-02-02T04:36:00Z,30.0600,-84.2910,15.39,1111122 
COMPS,ioos:station:USF.COMPS:SHP:1,2016-02-02T04:42:00Z,30.0600,-84.2910,15.44,1111122 
COMPS,ioos:station:USF.COMPS:SHP:1,2016-02-02T04:48:00Z,30.0600,-84.2910,15.51,1111122 
COMPS,ioos:station:USF.COMPS:SHP:1,2016-02-02T04:54:00Z,30.0600,-84.2910,15.7,1111122 
COMPS,ioos:station:USF.COMPS:SHP:1,2016-02-02T05:00:00Z,30.0600,-84.2910,15.66,1111122 
COMPS,ioos:station:USF.COMPS:SHP:1,2016-02-02T05:06:00Z,30.0600,-84.2910,15.6,1111122 
COMPS,ioos:station:USF.COMPS:SHP:1,2016-02-02T05:12:00Z,30.0600,-84.2910,15.68,1111122 
COMPS,ioos:station:USF.COMPS:SHP:1,2016-02-02T05:18:00Z,30.0600,-84.2910,15.79,1111122 
COMPS,ioos:station:USF.COMPS:SHP:1,2016-02-02T05:24:00Z,30.0600,-84.2910,15.74,1111122 
COMPS,ioos:station:USF.COMPS:SHP:1,2016-02-02T05:30:00Z,30.0600,-84.2910,15.6,1111122 
COMPS,ioos:station:USF.COMPS:SHP:1,2016-02-02T05:36:00Z,30.0600,-84.2910,15.6,1111122 
COMPS,ioos:station:USF.COMPS:SHP:1,2016-02-02T05:42:00Z,30.0600,-84.2910,15.56,1111122 
COMPS,ioos:station:USF.COMPS:SHP:1,2016-02-02T05:48:00Z,30.0600,-84.2910,15.52,1111122 
COMPS,ioos:station:USF.COMPS:SHP:1,2016-02-02T05:54:00Z,30.0600,-84.2910,15.33,1111122 
COMPS,ioos:station:USF.COMPS:SHP:1,2016-02-02T06:00:00Z,30.0600,-84.2910,15.33,1111122 
COMPS,ioos:station:USF.COMPS:SHP:1,2016-02-02T06:06:00Z,30.0600,-84.2910,15.34,1111122 
COMPS,ioos:station:USF.COMPS:SHP:1,2016-02-02T06:12:00Z,30.0600,-84.2910,15.42,1111122 
COMPS,ioos:station:USF.COMPS:SHP:1,2016-02-02T06:18:00Z,30.0600,-84.2910,15.2,1111122 
COMPS,ioos:station:USF.COMPS:SHP:1,2016-02-02T06:24:00Z,30.0600,-84.2910,15.19,1111122 
COMPS,ioos:station:USF.COMPS:SHP:1,2016-02-02T06:30:00Z,30.0600,-84.2910,15.18,1111122 
COMPS,ioos:station:USF.COMPS:SHP:1,2016-02-02T06:36:00Z,30.0600,-84.2910,15.24,1111122 
COMPS,ioos:station:USF.COMPS:SHP:1,2016-02-02T06:42:00Z,30.0600,-84.2910,15.19,1111122 
COMPS,ioos:station:USF.COMPS:SHP:1,2016-02-02T06:48:00Z,30.0600,-84.2910,15.01,1111122 
COMPS,ioos:station:USF.COMPS:SHP:1,2016-02-02T06:54:00Z,30.0600,-84.2910,14.92,1111122 
COMPS,ioos:station:USF.COMPS:SHP:1,2016-02-02T07:00:00Z,30.0600,-84.2910,15.03,1111122 
COMPS,ioos:station:USF.COMPS:SHP:1,2016-02-02T07:06:00Z,30.0600,-84.2910,14.96,1111122 
COMPS,ioos:station:USF.COMPS:SHP:1,2016-02-02T07:12:00Z,30.0600,-84.2910,14.92,1111122 
COMPS,ioos:station:USF.COMPS:SHP:1,2016-02-02T07:18:00Z,30.0600,-84.2910,14.92,1111122 
COMPS,ioos:station:USF.COMPS:SHP:1,2016-02-02T07:24:00Z,30.0600,-84.2910,14.96,1111122 
COMPS,ioos:station:USF.COMPS:SHP:1,2016-02-02T07:30:00Z,30.0600,-84.2910,14.95,1111122 
COMPS,ioos:station:USF.COMPS:SHP:1,2016-02-02T07:36:00Z,30.0600,-84.2910,14.91,1111122 
COMPS,ioos:station:USF.COMPS:SHP:1,2016-02-02T07:42:00Z,30.0600,-84.2910,14.99,1111122 
COMPS,ioos:station:USF.COMPS:SHP:1,2016-02-02T07:48:00Z,30.0600,-84.2910,14.89,1111122 
COMPS,ioos:station:USF.COMPS:SHP:1,2016-02-02T07:54:00Z,30.0600,-84.2910,14.87,1111122 
COMPS,ioos:station:USF.COMPS:SHP:1,2016-02-02T08:00:00Z,30.0600,-84.2910,14.79,1111122 
COMPS,ioos:station:USF.COMPS:SHP:1,2016-02-02T08:06:00Z,30.0600,-84.2910,14.82,1111122 